Weather History for Charlottetown, PE

Change the Weather History Date:

Thursday, January 31, 2013

  Actual Average Record
Temperature  
Mean Temperature 46 °F -  
Max Temperature 54 °F 26 °F 54 °F (2013)
Min Temperature 37 °F 10 °F -2 °F (2007)
Degree Days  
Heating Degree Days 20    
Moisture  
Dew Point 46 °F    
Average Humidity 93    
Maximum Humidity 100    
Minimum Humidity 75    
Precipitation  
Precipitation 0.12 in 0.12 in - ()
Sea Level Pressure  
Sea Level Pressure 29.20 in    
Wind  
Wind Speed 21 mph ()    
Max Wind Speed 39 mph    
Max Gust Speed 56 mph    
Visibility 12.6 miles    
Events Fog , Rain , Snow    
Averages and records for this station are not official NWS values.
T = Trace of Precipitation, MM = Missing Value Source: Averaged Metar Reports

Daily Weather History Graph

Daily Weather History Graph

Search for Another Location

Airport:

Trip Planner

Search our weather history database for the weather conditions in past years. The results will help you decide how hot, cold, wet, or windy it might be!

Date:

Astronomy

Jan. 31, 2013 Rise Set
Actual Time 7:36 AM AST 5:16 PM AST
Civil Twilight 7:04 AM AST 5:48 PM AST
Nautical Twilight 6:28 AM AST 6:24 PM AST
Astronomical Twilight 5:53 AM AST 6:59 PM AST
Moon 10:34 PM AST (1/31) 9:14 AM AST (1/31)
Length of Visible Light 10h 43m
Length of Day
9h 39m
Waning Gibbous, 80% of the Moon is Illuminated
Jan 31
Waning Gibbous
Feb 3
Last Quarter
Feb 10
New
Feb 17
First Quarter
Feb 25
Full

Hourly Weather History & Observations

Time (AST) Temp. Windchill Dew Point Humidity Pressure Visibility Wind Dir Wind Speed Gust Speed Precip Events Conditions
12:00 AM 46.4 °F 39.2 °F 46.4 °F 100% 29.52 in 0.0 mi South 18.4 mph - N/A Snow Rain
1:00 AM 48.2 °F - 48.2 °F 100% 29.51 in 15.0 mi SSW 18.4 mph 27.6 mph N/A   Overcast
2:00 AM 49 °F - 49 °F 99% 29.49 in 15 mi SSW 18.4 mph - -   Overcast
2:00 AM 48.2 °F - 48.2 °F 100% 29.49 in 15.0 mi SSW 18.4 mph 27.6 mph N/A   Overcast
2:12 AM 50.0 °F - 48.2 °F 94% 29.48 in 12.0 mi SSW 18.4 mph 28.8 mph N/A Rain Light Rain
3:00 AM 48.2 °F - 48.2 °F 100% 29.48 in 15.0 mi South 17.3 mph 26.5 mph N/A Rain Light Rain
4:00 AM 46.4 °F 40.1 °F 46.4 °F 100% 29.46 in 15.0 mi South 15.0 mph - N/A Rain Light Rain
5:00 AM 50.0 °F - 48.2 °F 94% 29.44 in 15.0 mi South 19.6 mph 25.3 mph N/A   Overcast
6:00 AM 50.0 °F - 48.2 °F 94% 29.43 in 15.0 mi South 16.1 mph 28.8 mph N/A   Overcast
7:00 AM 48.2 °F - 48.2 °F 100% 29.41 in 15.0 mi South 20.7 mph 27.6 mph N/A   Overcast
7:24 AM 46.4 °F 39.0 °F 46.4 °F 100% 29.40 in 6.0 mi South 19.6 mph 27.6 mph N/A   Overcast
8:00 AM 48 °F - 48 °F 100% 29.37 in 12 mi South 21.9 mph - -   Partly Cloudy
8:00 AM 48.2 °F - 48.2 °F 100% 29.37 in 12.0 mi South 23.0 mph 31.1 mph N/A   Overcast
8:12 AM 48.2 °F - 48.2 °F 100% 29.37 in 12.0 mi South 21.9 mph 31.1 mph N/A   Overcast
8:22 AM 46.4 °F 38.5 °F 46.4 °F 100% 29.36 in 12.0 mi South 21.9 mph 29.9 mph N/A Fog Overcast
9:00 AM 48.2 °F - 48.2 °F 100% 29.34 in 12.0 mi South 27.6 mph 33.4 mph N/A   Mostly Cloudy
9:38 AM 50.0 °F - 48.2 °F 94% 29.31 in 12.0 mi South 28.8 mph 35.7 mph N/A   Overcast
10:00 AM 50.0 °F - 50.0 °F 100% 29.31 in 15.0 mi South 27.6 mph 34.5 mph N/A   Overcast
10:14 AM 50.0 °F - 48.2 °F 94% 29.31 in 15.0 mi South 24.2 mph 34.5 mph N/A   Mostly Cloudy
11:00 AM 50.0 °F - 48.2 °F 94% 29.27 in 15.0 mi South 25.3 mph 35.7 mph N/A   Overcast
12:00 PM 51.8 °F - 50.0 °F 94% 29.19 in 15.0 mi South 31.1 mph 42.6 mph N/A   Overcast
12:28 PM 51.8 °F - 50.0 °F 94% 29.16 in 15.0 mi South 36.8 mph 48.3 mph N/A Rain Light Rain Showers
1:00 PM 51.8 °F - 50.0 °F 94% 29.12 in 15.0 mi South 34.5 mph 43.7 mph N/A Rain Light Rain Showers
2:00 PM 53 °F - 51 °F 89% 29.04 in 15 mi South 39.1 mph - - Rain Light Rain Showers
2:00 PM 53.6 °F - 50.0 °F 88% 29.04 in 15.0 mi South 36.8 mph 56.4 mph N/A Rain Light Rain Showers
3:00 PM 53.6 °F - 51.8 °F 94% 28.97 in 15.0 mi South 33.4 mph 43.7 mph N/A Rain Light Rain Showers
3:23 PM 53.6 °F - 51.8 °F 94% 28.95 in 7.0 mi South 38.0 mph 50.6 mph N/A Rain Rain Showers
3:39 PM 51.8 °F - 51.8 °F 100% 28.92 in 3.0 mi South 35.7 mph 49.5 mph N/A Rain Rain Showers
4:00 PM 51.8 °F - 50.0 °F 94% 28.89 in 8.0 mi South 36.8 mph 48.3 mph N/A Rain Light Rain Showers
4:05 PM 50.0 °F - 50.0 °F 100% 28.89 in 2.5 mi South 38.0 mph 46.0 mph N/A Rain Rain Showers
4:44 PM 50.0 °F - 50.0 °F 100% 28.89 in 8.0 mi South 29.9 mph 44.9 mph N/A Rain Light Rain Showers
5:00 PM 51.8 °F - 50.0 °F 94% 28.90 in 10.0 mi SSW 32.2 mph 47.2 mph N/A Rain Light Rain Showers
5:18 PM 51.8 °F - 50.0 °F 94% 28.90 in 15.0 mi SSW 32.2 mph 46.0 mph N/A   Mostly Cloudy
6:00 PM 51.8 °F - 48.2 °F 88% 28.94 in 15.0 mi SSW 27.6 mph 38.0 mph N/A   Mostly Cloudy
7:00 PM 46.4 °F 37.4 °F 41.0 °F 81% 28.99 in 15.0 mi SW 28.8 mph 43.7 mph N/A   Mostly Cloudy
8:00 PM 43 °F - 38 °F 75% 29.02 in 15 mi SW 23.0 mph - -   Partly Cloudy
8:00 PM 42.8 °F 34.0 °F 37.4 °F 81% 29.02 in 15.0 mi SW 20.7 mph 38.0 mph N/A   Mostly Cloudy
9:00 PM 41.0 °F 32.5 °F 37.4 °F 87% 29.03 in 15.0 mi SW 17.3 mph 29.9 mph N/A   Mostly Cloudy
9:33 PM 41.0 °F 32.2 °F 35.6 °F 81% 29.07 in 10.0 mi WSW 18.4 mph 28.8 mph N/A Rain Light Rain Showers
10:00 PM 39.2 °F 29.8 °F 33.8 °F 81% 29.07 in 15.0 mi WSW 18.4 mph 25.3 mph N/A Rain Light Rain Showers
10:44 PM 37.4 °F 28.2 °F 30.2 °F 75% 29.08 in 15.0 mi SW 16.1 mph 28.8 mph N/A   Overcast
11:00 PM 37.4 °F 29.3 °F 30.2 °F 75% 29.09 in 15.0 mi SW 12.7 mph 19.6 mph N/A   Overcast